Location: Antichan
(42.9728°N, 0.6667°E)
Time: 10:16:11
(UTC+00:00)

Meteor 1-13 Rocket - Pass Details

Date: 15 August 2020
Orbit: 830 x 913 km, 81.3° (Epoch: 18 September)

Event Time Altitude Azimuth Distance (km) Brightness Sun altitude
Rises 21:55:05 0° 348° (NNW) 3,384 8.4 -26.4°
Reaches altitude 10° 21:57:30 10° 348° (NNW) 2,445 7.5 -26.6°
Maximum altitude 22:03:01 81° 262° (W) 848 4.1 -27.2°
Enters shadow 22:03:18 77° 221° (SW) 856 4.0 -27.2°
